THOR AGENA D R/B, 2825

Orbit data source: Space-Track

THOR AGENA D R/B, 2825 is space debris in LEO originally from a launch on Wed, 31 May 1967 UTC launched from the Air Force Western Test Range (AFWTR). Debris objects in space refer to the collection of defunct objects orbiting the Earth. Examples of debris include non-operational satellites, rocket bodies, and fragments generated from explosions, collisions, or faulty payload assembly.

Loading next visibility...
Identifier
2825, 1967-053B
Orbit
LEO
Last TLE update
10 hours ago
Origin
Manufacturer
LMSC
Mission
Spacecraft
Bus & Motor
AGENA D, Unknown motor
Mass
600 kg wet, 600 kg dry
Launch date (UTC)
1967-05-31 (58 years ago)
Launch vehicle
Unknown
Launch site
Air Force Western Test Range (AFWTR)
Object type
Payload
Rocket body
Debris
Shape & HBR
Cyl + 1 Nozzle, 6.3 m
Radar Cross Section
8.306 m², Large (>1 m²)

Expand to show TLE details & history

TLE from 10 hours ago
0 THOR AGENA D R/B
1 02825U 67053B   25183.84254627  .00000042  00000-0  67317-4 0  9999
2 02825  69.9720 103.4910 0009698 268.2098  91.7898 13.97639072 43283
Epoch: 2025-07-02T20:13Z
TLE epoch observation values (Epoch: 2025-07-02T20:13:15.997Z)
Latitude
Longitude
-120.9435°
Altitude
904.522 km
Speed
7.4 km/s
True Right ascension
06h 53m 57s
True Declination
0° 00' 00"
Sunlit
Object was in daylight at epoch
Visualization orbit readout
Latitude
-29.45891°
Longitude
70.01711°
Altitude
908.462 km
Speed
7.399 km/s
Apparent Right ascension
22h 55m 51s
Apparent Declination
-66° 38' 45"
Sunlit
Object is in full shadow
Visualization observer readout
Local Sidereal Time
17:34:38
Azimuth
152.386° SSE
Elevation
-32.539°
Doppler factor
1
Orbital elements
Apogee altitude
907.085 km
Perigee altitude
892.968 km
Semi-major axis
7,278.164 km
Eccentricity
0.00097
Inclination
69.972°
RAAN
103.491°
Arg. of periapsis
268.2098°
True anomaly
Unknown
Mean anomaly
91.7898°
Eccentric anomaly
Unknown
Mean motion
3.49551 °/min
Orbital period
102.99 mins
BSTAR
0.000067317
Loading maneuver chart data...
Loading SW <> Apogee altitude chart data...
Loading historical data...
Loading historical data...
Loading historical data...
Loading historical data...
Loading historical data...
Loading historical data...
Loading historical data...

THOR AGENA D R/B Visibility forecast

Observer location: undefined°, undefined°

Span
Click to sort rows by Start time (UTC) header in descending order
Start Az.
Max El. time (UTC)
Max El. Az.
Max El.
End time (UTC)
End Az.
8 mins2025-07-03 07:08:04.382Z303.623° NW2025-07-03 07:12:04.382Z259.563° W19.752°2025-07-03 07:16:04.382Z214.647° SW
6 mins2025-07-03 18:41:04.382Z133.417° SE2025-07-03 18:44:04.382Z98.806° ESE17.658°2025-07-03 18:47:04.382Z65.126° ENE
10 mins2025-07-03 20:24:04.382Z218.132° SW2025-07-03 20:29:04.382Z308.454° NW41.714°2025-07-03 20:34:04.382Z17.155° NNE
4 mins2025-07-04 03:42:04.382Z26.344° NE2025-07-04 03:44:04.382Z47.666° ENE13.089°2025-07-04 03:46:04.382Z68.257° E
10 mins2025-07-04 05:26:04.382Z341.258° N2025-07-04 05:30:04.382Z40.775° NE43.77°2025-07-04 05:36:04.382Z149.899° SSE
|